Tracking 23610 objects as of 19-Sep-2021
HD Live streaming from Space Station
objects crossing your sky now

STARLINK-2690

Track STARLINK-2690 now!
10-day predictions
STARLINK-2690 is classified as:


NORAD ID: 48480
Int'l Code: 2021-040BE
Perigee: 553.8 km
Apogee: 554.9 km
Inclination: 53.1 °
Period: 95.6 minutes
Semi major axis: 6925 km
RCS: Unknown
Launch date: May 9, 2021
Source: United States (US)
Launch site: AIR FORCE EASTERN TEST RANGE (AFETR)
aabbcc
Your satellite tracking list
Your tracking list is empty




NASA's NSSDC Master Catalog

Two Line Element Set (TLE):
1 48480U 21040BE  21261.88590318  .00001458  00000-0  11675-3 0  9996
2 48480  53.0562 331.5458 0000840 132.3716 227.7344 15.06401330 21523
Source of the keplerian elements: AFSPC